This is the latest recevied weather packets stored in our database for station/object OE-11349. If no packets are shown the sender has not sent any weather packets the latest 10 day(s).
| Time | Temp. | Humidity | Pressure | Rain* | Wind** | Luminosity | Snow |
|---|---|---|---|---|---|---|---|
| 1788080708 | 17.22° C | 59% | 854.5 hPa | - | - | 647 W/m² | - |
| 1788080109 | 17.22° C | 59% | 854.5 hPa | - | - | 626 W/m² | - |
| 1788079282 | 16.67° C | 59% | 854.6 hPa | - | - | 606 W/m² | - |
| 1788078908 | 16.67° C | 63% | 854.6 hPa | - | - | 578 W/m² | - |
| 1788078309 | 16.11° C | 63% | 854.5 hPa | - | - | 557 W/m² | - |
| 1788077481 | 16.11° C | 63% | 854.5 hPa | - | - | 537 W/m² | - |
| 1788077109 | 16.11° C | 65% | 854.5 hPa | - | - | 509 W/m² | - |
| 1788076508 | 16.67° C | 70% | 854.4 hPa | - | - | 489 W/m² | - |
| 1788075681 | 15° C | 70% | 854.5 hPa | - | - | 489 W/m² | - |
| 1788075308 | 15° C | 68% | 854.5 hPa | - | - | 461 W/m² | - |
| 1788074709 | 14.44° C | 71% | 854.4 hPa | - | - | 406 W/m² | - |
| 1788073882 | 13.89° C | 78% | 854.4 hPa | - | - | 379 W/m² | - |
| 1788073508 | 12.78° C | 82% | 854.4 hPa | - | - | 351 W/m² | - |
| 1788072908 | 12.78° C | 83% | 854.5 hPa | - | - | 323 W/m² | - |
| 1788072082 | 12.22° C | 85% | 854.5 hPa | - | - | 296 W/m² | - |
| 1788071709 | 11.11° C | 90% | 854.3 hPa | - | - | 234 W/m² | - |
| 1788071109 | 10.56° C | 92% | 854.3 hPa | - | - | 76 W/m² | - |
| 1788070282 | 10.56° C | 92% | 854.3 hPa | - | - | 48 W/m² | - |
| 1788069908 | 10.56° C | 91% | 854.2 hPa | - | - | 41 W/m² | - |
| 1788069309 | 10.56° C | 91% | 854.2 hPa | - | - | 48 W/m² | - |
| 1788068482 | 10.56° C | 91% | 854.1 hPa | - | - | 48 W/m² | - |
| 1788068109 | 10.56° C | 92% | 854.2 hPa | - | - | 34 W/m² | - |
| 1788067509 | 10.56° C | 92% | 854.2 hPa | - | - | 28 W/m² | - |
| 1788066682 | 10.56° C | 91% | 854.1 hPa | - | - | 14 W/m² | - |
| 1788066308 | 10.56° C | 92% | 854.1 hPa | - | - | 14 W/m² | - |
* Rain since midnight (hover to see other rain measurements)
** Current wind speed in m/s (hover to see current wind gust speed)